Volver al catálogo

HULIANWANG DIGUI-55

ActivoComunicacionesLEO
NORAD 65112·PAYLOAD·🇨🇳 China

Lanzado Aug 4, 2025 desde Wenchang Space Launch Site

Loading…

Próximos Pases (próximas 24 horas)

TLE

ActualizadoSource: Space-Track

Época: Sep 14, 2026, 19:24 UTC

1 65112U 25168G   26257.80865802 -.00000091  00000-0  70299-4 0  9998
2 65112  50.0016   4.0426 0011106   0.5150 359.5732 13.29326482 54615

Sigue HULIANWANG DIGUI-55 en tiempo real con AllMySat

Download on the App Store